Miscellaneous Local Product
Issued by NWS North Platte, NE

Home | Current Version | Previous Version | Text Only | Print | Product List | Glossary On
Versions: 1 2 3 4 5 6 7 8 9 10 11 12 13 14 15 16 17 18 19 20 21 22 23 24 25 26 27 28 29 30 31 32 33 34 35 36 37 38 39 40 41 42 43 44 45 46 47 48 49 50
000
AXUS43 KLBF 011210
MISLBF


WESTERN AND NORTH CENTRAL NEBRASKA HOURLY WEATHER ROUNDUP
NATIONAL WEATHER SERVICE NORTH PLATTE NE
600 AM CST SUN MAR 01 2015

***STATIONS NOT REPORTING VARIABLES SUCH AS SKY/WEATHER OR
PRESSURE ARE PROVIDED BY THE NEBRASKA DEPARTMENT OF
ROADS...RAWS...AND APRS NETWORKS...AND ARE NOT UNDER
NATIONAL WEATHER SERVICE QUALITY CONTROL***

...OBSERVATIONS IN AND NEAR THE EASTERN PANHANDLE OF NEBRASKA...

CITY           SKY/WX    TMP DP  RH WIND       PRES   REMARKS
PINE RIDGE     CLOUDY    15  11  83 SW3       30.23R
CHADRON        CLOUDY    18  12  77 SW6       30.24R WCI  10
ALLIANCE       CLOUDY    17  10  74 N9        30.18R WCI   6
SIDNEY         PTCLDY    14  11  87 N3        30.15R
WHITECLAY        N/A     15  10  80 CALM        N/A
CRESCENT LAKE    N/A     17  11  77 CALM        N/A
LISCO            N/A     21  13  72 NW5         N/A  WCI  14
BIG SPRINGS      N/A      9   6  86 CALM        N/A
LEWELLEN         N/A     10   7  86 CALM        N/A
$$

...OBSERVATIONS IN NORTH CENTRAL NEBRASKA...

CITY           SKY/WX    TMP DP  RH WIND       PRES   REMARKS
VALENTINE      LGT SNOW  18  12  77 W5        30.28R WCI  11
THEDFORD       CLOUDY    19   9  66 CALM      30.24S
AINSWORTH      CLOUDY    17   8  70 W3        30.27R
O`NEILL        CLOUDY    16  13  88 NW3       30.29R
ORD            CLOUDY    15  10  80 NW5       30.27R WCI   8
BROKEN BOW     CLOUDY    20  13  74 NW8       30.25R WCI  10
BROWNLEE         N/A     15   6  66 NW3         N/A
SPRINGVIEW       N/A     15   8  72 CALM        N/A
BREWSTER         N/A     22  13  70 N6          N/A  WCI  14
ROSE             N/A     22  18  85 W3          N/A
NEWPORT          N/A     24  19  80 W3          N/A
COMSTOCK         N/A     24  20  85 W3          N/A
EWING            N/A     16  13  86 N5          N/A  WCI   9
$$

...OBSERVATIONS IN SOUTHWEST NEBRASKA AND FAR NORTHEAST COLORADO...

CITY           SKY/WX    TMP DP  RH WIND       PRES   REMARKS
WRAY           CLOUDY    19  17  90 CALM      30.17R
IMPERIAL         N/A     13   9  84 N6        30.20R WCI   4
OGALLALA       CLOUDY    17  14  88 CALM      30.21R
NORTH PLATTE   CLOUDY    20  14  77 NW5       30.23R WCI  13
MCCOOK         PTCLDY    15  10  80 N5        30.25R HAZE    WCI   8
LEXINGTON      MOCLDY    14  11  90 NW3       30.25R
PAXTON           N/A     20  14  77 CALM        N/A
BRADY            N/A     19  14  81 CALM        N/A
GOTHENBURG       N/A     19  14  81 CALM        N/A
CALLAWAY         N/A     19  14  81 NW7         N/A  WCI  10
$$

...NORTH PLATTE AREA...

CITY           SKY/WX    TMP DP  RH WIND       PRES   REMARKS
AIRPORT        CLOUDY    20  14  77 NW5       30.23R WCI  13
DOWNTOWN         N/A     20  13  73 CALM        N/A
$$

...SOME WEATHER OBSERVATIONS FROM AROUND THE REGION...

CITY           SKY/WX    TMP DP  RH WIND       PRES   REMARKS
DENVER         MOCLDY    12   7  80 SW7       30.09R HAZE    WCI   1
LARAMIE        PTCLDY     4   1  88 N7        29.99R WCI  -8
CHEYENNE       PTCLDY    11   7  84 N7        30.04R WCI   0
SCOTTSBLUFF    CLOUDY    17  10  74 N9        30.18R WCI   6
RAPID CITY     CLEAR      9   6  88 CALM      30.22R
PIERRE         MOCLDY    12   4  70 W8        30.26R WCI   0
WINNER         CLOUDY    18  11  74 W9        30.28R WCI   7
SIOUX FALLS    PTCLDY     9   7  92 CALM      30.28R
OMAHA          PTCLDY    20  13  74 SW3       30.35S
GRAND ISLAND   CLOUDY    18  14  84 W7        30.28S WCI   9
KANSAS CITY    CLOUDY    22  19  89 CALM      30.35S
WICHITA        FOG       23  21  92 CALM      30.34R VSB 1
HAYS           CLOUDY    18   7  62 CALM      30.29R
LIBERAL        CLOUDY    23  18  80 E3        30.20R
GOODLAND       CLOUDY    20  18  92 S6        30.17R WCI  12
$$



USA.gov is the U.S. government's official web portal to all federal, state and local government web resources and services.